Orbital Elements at Epoch 2459200.5 (2020-Dec-17.0) TDB
Reference: JPL 23 (heliocentric ecliptic J2000)
Element | Value | Uncertainty (1-sigma) | Units |
e | .1652167008384278 | 3.3083e-08 | |
a | 2.610526574403637 | 1.2462e-08 | au |
q | 2.179223986329625 | 8.6629e-08 | au |
i | 4.650755877547691 | 4.1887e-06 | deg |
node | 195.8143955962065 | 4.5507e-05 | deg |
peri | 202.143496300347 | 4.7371e-05 | deg |
M | 35.87928890708252 | 1.4747e-05 | deg |
tp | 2459046.956324978076 (2020-Jul-16.45632498) | 6.2556e-05 | TDB |
period | 1540.602522838217 4.22 | 1.1032e-05 3.02e-08 | d yr |
n | .2336748088253031 | 1.6733e-09 | deg/d |
Q | 3.041829162477648 | 1.4521e-08 | au |
|
| | Orbit Determination Parameters
Additional Information
|